DATE/TIME(UTC),Outside Humidity (),Lat. , Long.,Direction / Angle (),Direction / Angle (),Speed (ground - true North),Speed (Apparent),Barometric Pressure (),Outside Temperature ()
Jul-24-2019 00:00:00,,33.1902316,-123.78967499999999,37.19642005989304,6.955707632888194,20.293736501079913,17.591792656587472,1013,17.210000000000036
Jul-24-2019 00:00:15,,33.1907383,-123.78954499999999,33.39770987817568,1.7131438074411616,20.682505399568036,17.358531317494602,1013,17.180000000000007
Jul-24-2019 00:00:30,,33.191255,-123.78940499999999,41.29879787302974,5.31704833881404,20.079913606911447,16.153347732181427,1013,17.140000000000043
Jul-24-2019 00:00:45,,33.19177,-123.7892433,42.99475294661698,6.984355522644735,16.794816414686828,15.822894168466524,1013,17.27000000000004
Jul-24-2019 00:01:00,,33.1922966,-123.78909999999999,41.797271154793556,0.40107045659157625,17.786177105831534,19.5939524838013,1013,17.380000000000052
Jul-24-2019 00:01:15,,33.192828299999995,-123.78895,42.29574443655737,8.187566892419465,17.49460043196544,13.490280777537798,1013,17.27000000000004
Jul-24-2019 00:01:30,,33.193365,-123.7888083,52.59752559300958,8.319347185299552,19.08855291576674,15.25917926565875,1013,17.24000000000001
Jul-24-2019 00:01:45,,33.19392,-123.7886733,37.099017234720804,6.674958313274091,20.390928725701944,16.23110151187905,1013,17.260000000000048
Jul-24-2019 00:02:00,,33.194404999999996,-123.78855,38.79497230830804,9.717364205418761,22.295896328293736,17.00863930885529,1013,17.32000000000005
Jul-24-2019 00:02:15,,33.1949416,-123.78841829999999,36.99588483159726,4.640958140559668,21.382289416846653,20.157667386609074,1013,17.260000000000048
Jul-24-2019 00:02:30,,33.195454999999995,-123.78827659999999,33.39770987817568,359.3992361517115,18.796976241900648,19.20518358531318,1013,17.200000000000045
Jul-24-2019 00:02:45,,33.195955,-123.7881316,36.99588483159726,6.102000518143268,21.09071274298056,15.628509719222462,1012,17.220000000000027
Jul-24-2019 00:03:00,,33.196405,-123.7880416,45.298043283042894,9.293375437021954,21.285097192224626,12.226781857451403,1012,17.110000000000014
Jul-24-2019 00:03:15,,33.19678,-123.7879516,37.79802574478041,4.027893299769687,21.382289416846653,21.673866090712743,1013,17.180000000000007
Jul-24-2019 00:03:30,,33.1971233,-123.78787159999999,37.49435811336107,4.354479242994256,19.788336933045358,16.347732181425485,1013,17.160000000000025
Jul-24-2019 00:03:45,,33.1974466,-123.7878083,29.9943405750986,1.6959550735872368,20.682505399568036,15.822894168466524,1013,17.130000000000052
Jul-24-2019 00:04:00,,33.197714999999995,-123.7877333,39.89505127495922,359.9779235247936,19.496760259179265,15.939524838012959,1013,17.230000000000018
Jul-24-2019 00:04:15,,33.1979316,-123.78766159999999,34.096718388235296,358.31634591891424,17.591792656587472,17.863930885529157,1013,17.220000000000027
Jul-24-2019 00:04:30,,33.198158299999996,-123.7875933,29.295332065038988,359.4851798209811,16.794816414686828,15.23974082073434,1013,17.190000000000055
Jul-24-2019 00:04:45,,33.1983716,-123.78752,35.39733258318226,1.8563832562238671,18.19438444924406,16.600431965442766,1013,17.29000000000002
Jul-24-2019 00:05:00,,33.1985883,-123.7874583,30.79648148828175,356.1677541871736,14.987041036717065,14.053995680345572,1013,17.340000000000032
Jul-24-2019 00:05:15,,33.1987733,-123.7874083,21.594779298480727,352.2831003361867,15.78401727861771,12.887688984881208,1013,17.29000000000002
Jul-24-2019 00:05:30,,33.198945,-123.78735329999999,18.79874525824231,357.73192896788083,14.695464362850972,15.667386609071276,1013,17.180000000000007
Jul-24-2019 00:05:45,,33.1991216,-123.78729829999999,23.995472460078876,0.6187944187412892,15.492440604751618,14.326133909287257,1013,17.260000000000048
Jul-24-2019 00:06:00,,33.1993,-123.7872366,29.598999696458332,358.8148192006781,16.58099352051836,16.23110151187905,1013,17.340000000000032
Jul-24-2019 00:06:15,,33.19948,-123.7871816,30.49854343481372,6.428586461367837,18.48596112311015,14.384449244060475,1013,17.210000000000036
Jul-24-2019 00:06:30,,33.1996216,-123.7871333,40.19871890637856,5.953031491409254,18.09719222462203,13.1792656587473,1013,17.180000000000007
Jul-24-2019 00:06:45,,33.1997716,-123.7870916,27.095174131736634,357.1761599066039,16.58099352051836,13.684665226781858,1013,17.140000000000043
Jul-24-2019 00:07:00,,33.199876599999996,-123.787055,31.294954770045564,0.26929016371148695,16.58099352051836,15.23974082073434,1013,17.260000000000048
Jul-24-2019 00:07:15,,33.199986599999995,-123.7870233,27.79418264179624,2.440800207257307,16.48380129589633,15.822894168466524,1013,17.200000000000045
Jul-24-2019 00:07:30,,33.2001116,-123.78698159999999,32.395033736696746,5.5405018789150615,17.6889848812095,14.326133909287257,1013,17.160000000000025
Jul-24-2019 00:07:45,,33.200235,-123.7869183,29.49586729333478,6.468693507026994,18.29157667386609,13.742980561555077,1013,17.100000000000023
Jul-24-2019 00:08:00,,33.200353299999996,-123.7868666,34.795726898294895,353.1883736524934,13.898488120950324,11.526997840172786,1013,17.210000000000036
Jul-24-2019 00:08:15,,33.2004616,-123.7868,27.295709360032422,357.5084754277798,14.190064794816413,9.73866090712743,1013,17.27000000000004
Jul-24-2019 00:08:30,,33.200591599999996,-123.7867333,30.194875803394385,0.911002894258009,15.99784017278618,16.814254859611232,1013,17.160000000000025
Jul-24-2019 00:08:45,,33.200746599999995,-123.786655,37.79802574478041,356.93551763264895,15.492440604751618,15.220302375809936,1013,17.08000000000004
Jul-24-2019 00:09:00,,33.200913299999996,-123.7865633,33.798780334767265,355.52031187867584,15.881209503239742,15.492440604751618,1013,17.090000000000032
Jul-24-2019 00:09:15,,33.201184999999995,-123.78647,36.89848200642502,4.675335608267518,19.691144708423327,16.969762419006482,1013,17.090000000000032
Jul-24-2019 00:09:30,,33.201511599999996,-123.78635329999999,39.39657799319541,5.706659639503,18.796976241900648,17.533477321814253,1013,17.060000000000002
Jul-24-2019 00:09:45,,33.2018866,-123.7862466,35.99893826806963,7.8667105271462034,18.68034557235421,16.56155507559395,1013,17.05000000000001
Jul-24-2019 00:10:00,,33.2023116,-123.78613499999999,35.09939452971423,2.3319382261824506,20.19654427645788,18.44708423326134,1013,17.190000000000055
Jul-24-2019 00:10:15,,33.2027716,-123.785995,51.89851708294997,8.055786599539374,21.18790496760259,13.27645788336933,1013,17.170000000000016
Jul-24-2019 00:10:30,,33.203235,-123.785865,44.495902369859735,11.89460382691589,21.479481641468684,13.412526997840173,1013,17.100000000000023
Jul-24-2019 00:10:45,,33.2037283,-123.7857083,38.594437080012256,5.339966650619273,22.879049676025918,15.667386609071276,1013,17.250000000000057
Jul-24-2019 00:11:00,,33.204205,-123.78555329999999,38.6975694831358,11.676879864766178,22.1792656587473,16.017278617710584,1013,17.30000000000001
Jul-24-2019 00:11:15,,33.2046783,-123.7854316,43.298420578036314,8.920952870186918,19.788336933045358,15.881209503239742,1013,17.130000000000052
Jul-24-2019 00:11:30,,33.205165,-123.7853133,41.09826264473395,6.428586461367837,21.79049676025918,17.028077753779698,1013,17.230000000000018
Jul-24-2019 00:11:45,,33.2056083,-123.78519659999999,32.395033736696746,5.660823015892533,21.88768898488121,19.632829373650107,1013,17.200000000000045
Jul-24-2019 00:12:00,,33.206058299999995,-123.7850766,39.39657799319541,4.709713075975367,21.59611231101512,17.883369330453565,1013,17.08000000000004
Jul-24-2019 00:12:15,,33.2065333,-123.78495,47.29766598804946,17.54396768690581,19.788336933045358,13.37365010799136,1013,17.04000000000002
Jul-24-2019 00:12:30,,33.2070216,-123.7848033,44.89697282645131,8.141730268808997,18.68034557235421,15.511879049676025,1013,17.010000000000048
Jul-24-2019 00:12:45,,33.2075266,-123.78466499999999,49.69835914964761,12.536316557462415,19.691144708423327,13.412526997840173,1013,17.07000000000005
Jul-24-2019 00:13:00,,33.208066599999995,-123.78452659999999,47.89354209498552,5.826980776480473,19.5939524838013,17.300215982721383,1013,17.150000000000034
Jul-24-2019 00:13:15,,33.208606599999996,-123.7843716,46.99399835663012,6.686417469176709,21.285097192224626,13.412526997840173,1013,17.07000000000005
Jul-24-2019 00:13:30,,33.2091083,-123.78424659999999,43.39582340320856,8.691769752134588,18.99136069114471,16.347732181425485,1013,17.100000000000023
Jul-24-2019 00:13:45,,33.2096083,-123.7841033,37.694893341656865,2.2288058230589027,18.89416846652268,17.12526997840173,1013,17.110000000000014
Jul-24-2019 00:14:00,,33.2101316,-123.783985,32.59556896499254,1.9938931270552651,16.989200863930886,18.855291576673867,1013,17.160000000000025
Jul-24-2019 00:14:15,,33.2106533,-123.783845,40.2961217315508,9.992383947081557,16.48380129589633,13.626349892008639,1013,17.220000000000027
Jul-24-2019 00:14:30,,33.2112033,-123.78370659999999,44.69643759815552,3.128349561414295,17.883369330453565,19.866090712742984,1013,17.170000000000016
Jul-24-2019 00:14:45,,33.2117566,-123.7835533,44.197964316391705,3.3976397251257824,18.99136069114471,18.09719222462203,1013,17.260000000000048
Jul-24-2019 00:15:00,,33.212283299999996,-123.7834233,34.49778884482687,4.1252961249419275,18.09719222462203,19.18574514038877,1013,17.29000000000002
Jul-24-2019 00:15:15,,33.212836599999996,-123.78326659999999,39.79764844978698,2.194428355351053,18.583153347732182,19.2829373650108,1013,17.150000000000034
Jul-24-2019 00:15:30,,33.2133633,-123.783115,44.39849954468749,9.350671216535035,20.390928725701944,13.898488120950324,1013,17.060000000000002
Jul-24-2019 00:15:45,,33.213893299999995,-123.78298,36.69794677812923,6.80673860615418,20.19654427645788,17.241900647948167,1013,17.03000000000003
Jul-24-2019 00:16:00,,33.2144483,-123.78285,35.89580586494608,3.202834074781302,19.496760259179265,22.02375809935205,1013,17.05000000000001
Jul-24-2019 00:16:15,,33.2149983,-123.78272159999999,34.394656441703326,3.6898482006425017,17.883369330453565,15.39524838012959,1013,17.160000000000025
Jul-24-2019 00:16:30,,33.215525,-123.7825766,34.5951916699991,3.3976397251257824,16.48380129589633,18.719222462203028,1013,17.190000000000055
Jul-24-2019 00:16:45,,33.216081599999995,-123.7824466,33.69564793164372,0.9969465635276326,16.989200863930886,19.244060475161987,1013,17.160000000000025
Jul-24-2019 00:17:00,,33.2166466,-123.78229499999999,30.79648148828175,354.8556808363241,18.19438444924406,16.503239740820735,1013,17.150000000000034
Jul-24-2019 00:17:15,,33.2171883,-123.78215499999999,31.896560454932924,3.4721242384927886,18.388768898488124,18.641468682505398,1013,17.130000000000052
Jul-24-2019 00:17:30,,33.2177266,-123.782015,36.69794677812923,4.428963756361264,20.293736501079913,19.360691144708426,1013,17.210000000000036
Jul-24-2019 00:17:45,,33.218264999999995,-123.7818666,36.69794677812923,2.967921378777665,19.788336933045358,20.721382289416848,1013,17.170000000000016
Jul-24-2019 00:18:00,,33.2188066,-123.78170659999999,40.897727416438165,355.1994555134026,15.29805615550756,15.200863930885529,1013,17.110000000000014
Jul-24-2019 00:18:15,,33.219333299999995,-123.78157159999999,33.1971746498799,0.3323155211758775,15.39524838012959,20.2548596112311,1013,17.08000000000004
Jul-24-2019 00:18:30,,33.21987,-123.7814583,29.094796836743207,359.92062774528057,18.68034557235421,19.943844492440604,1013,17.120000000000005
Jul-24-2019 00:18:45,,33.220388299999996,-123.78132,35.597867811478054,358.48823325745343,14.59827213822894,18.174946004319654,1013,17.120000000000005
Jul-24-2019 00:19:00,,33.220915,-123.78117999999999,31.19755194487332,355.858356977803,16.48380129589633,15.336933045356373,1013,17.180000000000007
Jul-24-2019 00:19:15,,33.221438299999996,-123.78103499999999,33.39770987817568,0.7620338675239949,15.29805615550756,19.04967602591793,1013,17.160000000000025
Jul-24-2019 00:19:30,,33.2219666,-123.7808833,33.798780334767265,0.0687549354156988,17.183585313174948,18,1013,17.200000000000045
Jul-24-2019 00:19:45,,33.2225016,-123.780715,25.3992190581494,352.3976918952128,13.898488120950324,14.59827213822894,1013,17.200000000000045
Jul-24-2019 00:20:00,,33.2230516,-123.78058,34.29725361653108,0.045836623610465865,14.287257019438444,17.863930885529157,1013,17.160000000000025
Jul-24-2019 00:20:15,,33.2236066,-123.78044,33.69564793164372,358.0012191315923,14.384449244060475,18.641468682505398,1013,17.100000000000023
Jul-24-2019 00:20:30,,33.2241066,-123.780265,44.39849954468749,1.902219879834333,14.889848812095034,12.59611231101512,1013,17.060000000000002
Jul-24-2019 00:20:45,,33.2245616,-123.7801233,32.899236596411875,0.47555496995858326,12.498920086393088,14.578833693304537,1013,17.110000000000014
Jul-24-2019 00:21:00,,33.2250516,-123.7799883,34.49778884482687,351.1257255900224,13.587473002159827,13.87904967602592,1013,17.110000000000014
Jul-24-2019 00:21:15,,33.2255633,-123.7798533,24.299140091498217,353.9103004743582,13.490280777537798,14.248380129589634,1013,17.130000000000052
Jul-24-2019 00:21:30,,33.226093299999995,-123.77969329999999,28.498920729807146,352.77011446204784,13.781857451403887,15.900647948164146,1013,17.090000000000032
Jul-24-2019 00:21:45,,33.226639999999996,-123.7795683,26.797236078268604,357.9324641961766,12.98488120950324,17.028077753779698,1013,17.140000000000043
Jul-24-2019 00:22:00,,33.22718,-123.77942829999999,32.99663942158411,355.07913437642515,11.293736501079914,14.928725701943844,1013,17.200000000000045
Jul-24-2019 00:22:15,,33.227701599999996,-123.7792783,17.996604345059158,354.4775286915377,12.59611231101512,14.481641468682506,1013,17.220000000000027
Jul-24-2019 00:22:30,,33.2282416,-123.7791266,28.395788326683604,1.2662367272391195,13.898488120950324,19.866090712742984,1013,17.170000000000016
Jul-24-2019 00:22:45,,33.2287633,-123.7789583,38.6975694831358,357.2678331538249,13.995680345572353,17.475161987041037,1013,17.170000000000016
Jul-24-2019 00:23:00,,33.229295,-123.77879499999999,48.79881541129222,4.033622877720996,15.181425485961126,18.427645788336935,1013,17.180000000000007
Jul-24-2019 00:23:15,,33.229805,-123.77866829999999,22.998525896551246,348.44428310881017,15.39524838012959,14.403887688984883,1013,17.07000000000005
Jul-24-2019 00:23:30,,33.230315,-123.77852329999999,24.597078144966243,354.9645428173989,14.190064794816413,16.639308855291578,1013,17.05000000000001
Jul-24-2019 00:23:45,,33.230815,-123.77835999999999,27.79418264179624,350.0141874674686,13.781857451403887,13.976241900647949,1013,17.160000000000025
Jul-24-2019 00:24:00,,33.2313483,-123.7782033,31.398087173169117,354.7525484332005,13.684665226781858,15.123110151187905,1013,17.180000000000007
Jul-24-2019 00:24:15,,33.231886599999996,-123.7780566,44.495902369859735,9.024085273310467,15.084233261339092,15.161987041036715,1013,17.230000000000018
Jul-24-2019 00:24:30,,33.23242,-123.77790999999999,40.19871890637856,3.0710537819012123,16.58099352051836,19.496760259179265,1013,17.32000000000005
Jul-24-2019 00:24:45,,33.2329783,-123.7777416,38.296499026544225,2.3032903364259094,16.58099352051836,19.6133909287257,1013,17.28000000000003
Jul-24-2019 00:25:00,,33.233545,-123.777575,39.5971132214912,6.772361138446331,19.788336933045358,17.883369330453565,1013,17.200000000000045
Jul-24-2019 00:25:15,,33.2340866,-123.777445,40.49665695984659,2.6012283898939375,17.397408207343414,16.77537796976242,1013,17.27000000000004
Jul-24-2019 00:25:30,,33.234595,-123.77729,41.29879787302974,0.8479775367936184,16.386609071274297,18.816414686825055,1013,17.30000000000001
Jul-24-2019 00:25:45,,33.23513,-123.77713329999999,40.59405978501883,1.4667719555349077,16.892008639308855,18.077753779697623,1013,17.33000000000004
Jul-24-2019 00:26:00,,33.2356666,-123.7769716,29.39846446816254,2.6241467016991704,22.58747300215983,18.272138228941685,1013,17.27000000000004
Jul-24-2019 00:26:15,,33.2361966,-123.7768016,36.19374391841411,5.0993243766643275,21.59611231101512,20.138228941684662,1013,17.090000000000032
Jul-24-2019 00:26:30,,33.236766599999996,-123.776635,36.39427914670989,5.0993243766643275,20.585313174946002,19.65226781857451,1013,17.110000000000014
Jul-24-2019 00:26:45,,33.237305,-123.7764833,52.69492841818182,359.72582209493606,21.18790496760259,12.712742980561556,1013,17.220000000000027
Jul-24-2019 00:27:00,,33.2378366,-123.77633829999999,43.298420578036314,3.632552421129419,20.993520518358533,20.21598272138229,1013,17.08000000000004
Jul-24-2019 00:27:15,,33.2384,-123.77617,42.99475294661698,2.1543213096918956,16.386609071274297,20.157667386609074,1013,16.980000000000018
Jul-24-2019 00:27:30,,33.238955,-123.7760033,34.89885930141844,359.2273488131723,15.29805615550756,17.863930885529157,1013,17.110000000000014
Jul-24-2019 00:27:45,,33.2395166,-123.77584999999999,43.39582340320856,3.7414144022042755,18.89416846652268,21.09071274298056,1013,17.130000000000052
Jul-24-2019 00:28:00,,33.2400616,-123.7757116,36.99588483159726,0.25210142985756223,16.892008639308855,20.31317494600432,1013,17.120000000000005
Jul-24-2019 00:28:15,,33.2406,-123.775565,28.59632355497939,356.5516359099113,15.78401727861771,18.913606911447086,1013,17.130000000000052
Jul-24-2019 00:28:30,,33.24116,-123.7753833,35.89580586494608,357.5371233175363,14.092872570194382,18.21382289416847,1013,17.120000000000005
Jul-24-2019 00:28:45,,33.2417066,-123.77521,39.09863993972738,358.27623887325507,13.684665226781858,17.49460043196544,1013,17.150000000000034
Jul-24-2019 00:29:00,,33.2422466,-123.77506,29.197929239866756,359.3018333265392,16.58099352051836,17.863930885529157,1013,17.090000000000032
Jul-24-2019 00:29:15,,33.242786599999995,-123.77492,34.89885930141844,1.2662367272391195,17.183585313174948,18.68034557235421,1013,17.120000000000005
Jul-24-2019 00:29:30,,33.2433433,-123.77476999999999,28.894261608447415,0.7734930234266114,15.99784017278618,19.341252699784018,1013,17.260000000000048
Jul-24-2019 00:29:45,,33.2438983,-123.77458659999999,23.898069634906637,345.98629416769893,13.995680345572353,11.740820734341252,1013,17.220000000000027
Jul-24-2019 00:30:00,,33.244466599999996,-123.77441329999999,44.39849954468749,0.7333859777674538,13.587473002159827,17.72786177105832,1013,17.08000000000004
Jul-24-2019 00:30:15,,33.2449966,-123.77427829999999,28.395788326683604,358.68303890779794,14.190064794816413,17.319654427645787,1013,17.08000000000004
Jul-24-2019 00:30:30,,33.24554,-123.77413159999999,28.29838550151136,358.4309374779404,13.995680345572353,19.53563714902808,1013,17.120000000000005
Jul-24-2019 00:30:45,,33.246083299999995,-123.77395999999999,32.899236596411875,355.0390273307659,13.08207343412527,14.151187904967603,1013,17.170000000000016
Jul-24-2019 00:31:00,,33.2466383,-123.7737983,31.398087173169117,354.09937654675133,12.79049676025918,15.161987041036715,1013,17.150000000000034
Jul-24-2019 00:31:15,,33.2472,-123.773635,32.49816613982029,354.64941603007696,13.684665226781858,15.142548596112311,1013,17.220000000000027
Jul-24-2019 00:31:30,,33.2477666,-123.773455,31.495489998341355,352.4836355644825,13.587473002159827,14.50107991360691,1013,17.29000000000002
Jul-24-2019 00:31:45,,33.2483183,-123.77328659999999,31.99396328010517,359.90343901142666,13.995680345572353,18.252699784017278,1013,17.210000000000036
Jul-24-2019 00:32:00,,33.24883,-123.7731316,36.09634109324187,0.6818197762056798,15.99784017278618,15.978401727861772,1013,17.190000000000055
Jul-24-2019 00:32:15,,33.2493366,-123.7729816,33.69564793164372,3.6210932652268033,15.29805615550756,16.48380129589633,1013,17.24000000000001
Jul-24-2019 00:32:30,,33.2498566,-123.77283659999999,41.8946739799658,5.849899088285706,18.796976241900648,18.388768898488124,1013,17.170000000000016
Jul-24-2019 00:32:45,,33.2503933,-123.7726833,42.89735012144474,5.884276555993555,19.18574514038877,18.34989200863931,1013,17.090000000000032
Jul-24-2019 00:33:00,,33.2509533,-123.77252329999999,51.697981854654174,15.057330856038037,18.583153347732182,13.85961123110151,1013,16.99000000000001
Jul-24-2019 00:33:15,,33.25152,-123.7723783,45.7965165648067,6.531718864491385,18.583153347732182,17.883369330453565,1013,16.950000000000045
Jul-24-2019 00:33:30,,33.2520866,-123.77221499999999,55.59409486154378,4.681065186218826,18.388768898488124,12.460043196544277,1013,17.090000000000032
Jul-24-2019 00:33:45,,33.2526183,-123.77207329999999,47.498201216345244,4.681065186218826,19.38012958963283,14.034557235421167,1013,17.090000000000032
Jul-24-2019 00:34:00,,33.2531466,-123.7719216,39.998183678082775,6.818197762056797,18.99136069114471,16.28941684665227,1013,17.090000000000032
Jul-24-2019 00:34:15,,33.2536683,-123.77176499999999,43.39582340320856,11.848767203305426,17.883369330453565,13.412526997840173,1013,17.03000000000003
Jul-24-2019 00:34:30,,33.2541933,-123.77162329999999,44.793840423327765,9.56266560073344,17.980561555075592,13.91792656587473,1013,17.120000000000005
Jul-24-2019 00:34:45,,33.2547316,-123.7714566,45.097508054747095,6.508800552686152,20.19654427645788,17.00863930885529,1013,17.190000000000055
Jul-24-2019 00:35:00,,33.2552766,-123.7712883,43.298420578036314,9.734552939272687,20.896328293736502,16.58099352051836,1013,17.180000000000007
Jul-24-2019 00:35:15,,33.255836599999995,-123.77114499999999,36.39427914670989,10.14708255176688,22.490280777537798,16.930885529157667,1013,17.100000000000023
Jul-24-2019 00:35:30,,33.256396599999995,-123.77100159999999,48.397744954700634,8.846468356819912,20.390928725701944,15.803455723542118,1013,17.130000000000052
Jul-24-2019 00:35:45,,33.2569383,-123.77086159999999,48.59828018299643,1.2433184154338865,20.19654427645788,17.941684665226784,1013,17.010000000000048
Jul-24-2019 00:36:00,,33.2574733,-123.7707166,43.19528817491276,12.828525032979131,17.980561555075592,14.695464362850972,1013,16.980000000000018
Jul-24-2019 00:36:15,,33.2580233,-123.7705733,45.395446108215125,8.485504945887492,20.293736501079913,15.511879049676025,1013,17.07000000000005
Jul-24-2019 00:36:30,,33.2585866,-123.77042499999999,39.39657799319541,2.773115728433185,19.08855291576674,20.177105831533478,1013,17.130000000000052
Jul-24-2019 00:36:45,,33.2591466,-123.770265,38.89810471143159,14.770851958472624,19.788336933045358,14.442764578833692,1013,17.02000000000004
Jul-24-2019 00:37:00,,33.2596866,-123.77010159999999,44.793840423327765,13.378564516304722,19.691144708423327,13.606911447084233,1013,17.100000000000023
Jul-24-2019 00:37:15,,33.2601716,-123.76997329999999,36.69794677812923,11.264350252271985,19.496760259179265,15.375809935205185,1013,17.120000000000005
Jul-24-2019 00:37:30,,33.260664999999996,-123.7698566,27.79418264179624,358.76898257706756,21.69330453563715,20.19654427645788,1013,17.140000000000043
Jul-24-2019 00:37:45,,33.2611566,-123.7697,44.29536714156395,5.998868115019719,21.285097192224626,18.54427645788337,1013,17.08000000000004
Jul-24-2019 00:38:00,,33.2616766,-123.769555,35.99893826806963,7.660445720899108,20.682505399568036,18.252699784017278,1013,16.860000000000014
Jul-24-2019 00:38:15,,33.262216599999995,-123.76939,46.4955250748663,7.110406237573517,19.788336933045358,17.358531317494602,1013,16.970000000000027
Jul-24-2019 00:38:30,,33.2627516,-123.76921999999999,42.29574443655737,4.113836969039311,18.796976241900648,15.609071274298056,1013,17.08000000000004
Jul-24-2019 00:38:45,,33.2632633,-123.76907,27.897315044919782,1.501149423242757,17.980561555075592,18.660907127429805,1013,17.140000000000043
Jul-24-2019 00:39:00,,33.26376,-123.76893,32.49816613982029,1.0485127650894066,21.09071274298056,17.397408207343414,1013,17.150000000000034
Jul-24-2019 00:39:15,,33.2642516,-123.768795,39.09863993972738,359.3304812162958,18.388768898488124,21.032397408207345,1013,16.99000000000001
Jul-24-2019 00:39:30,,33.264755,-123.76863999999999,32.2976309115245,0.5213915935690492,17.883369330453565,21.673866090712743,1013,17.07000000000005
Jul-24-2019 00:39:45,,33.265286599999996,-123.76849329999999,27.994717870092025,356.5974725335218,15.29805615550756,18.21382289416847,1013,17.060000000000002